When you browse on this site, cookies collect data to enhance your experience and personalize the content and advertising you see.
Visit our Privacy Policy to learn more. By continuing to use the site, you agree to this use of cookies and data.
  • In Germany
  • List of Countries
  • For 7 days
  • Water Temperature
  • Weather Map
  • Weather Widgets
  • user-avatar
    Login

    Hourly Weather Christchurch

    Today, 31 March, Tuesday

    Time Temperature Precipitation Wind Pressure Humidity
    00:00 +13°C° 0 mm 3 mps 767 mmHg 95%
    01:00 +13°C° 0.2 mm 3 mps 767 mmHg 95%
    02:00 +13°C° 0.2 mm 3 mps 767 mmHg 95%
    03:00 +13°C° 0.2 mm 3 mps 766 mmHg 96%
    04:00 +13°C° 0.2 mm 2 mps 766 mmHg 96%
    05:00 +13°C° 0.2 mm 2 mps 766 mmHg 96%
    06:00 +13°C° 0 mm 2 mps 765 mmHg 95%
    07:00 +14°C° 0 mm 2 mps 766 mmHg 93%
    08:00 +14°C° 0 mm 1 mps 766 mmHg 92%
    09:00 +15°C° 0 mm 1 mps 766 mmHg 90%
    10:00 +16°C° 0 mm 1 mps 765 mmHg 82%
    11:00 +17°C° 0 mm 2 mps 765 mmHg 75%
    12:00 +19°C° 0 mm 2 mps 764 mmHg 64%
    13:00 +19°C° 0 mm 3 mps 764 mmHg 64%
    14:00 +19°C° 0 mm 3 mps 763 mmHg 63%
    15:00 +19°C° 0 mm 4 mps 763 mmHg 63%
    16:00 +18°C° 0 mm 3 mps 763 mmHg 69%
    17:00 +16°C° 0 mm 3 mps 763 mmHg 76%
    18:00 +14°C° 0 mm 3 mps 763 mmHg 85%
    19:00 +14°C° 0 mm 2 mps 763 mmHg 88%
    20:00 +13°C° 0 mm 2 mps 764 mmHg 92%
    21:00 +12°C° 0 mm 2 mps 764 mmHg 95%
    22:00 +12°C° 0 mm 1 mps 764 mmHg 95%
    23:00 +12°C° 0 mm 1 mps 764 mmHg 95%

    Tomorrow, 1 April, Wednesday

    Time Temperature Precipitation Wind Pressure Humidity
    00:00 +12°C° 0 mm 1 mps 763 mmHg 95%
    01:00 +12°C° 0 mm 1 mps 763 mmHg 94%
    02:00 +12°C° 0 mm 1 mps 763 mmHg 93%
    03:00 +11°C° 0 mm 1 mps 763 mmHg 93%
    04:00 +11°C° 0 mm 1 mps 763 mmHg 92%
    05:00 +11°C° 0 mm 1 mps 763 mmHg 92%
    06:00 +11°C° 0 mm 1 mps 763 mmHg 91%
    07:00 +12°C° 0 mm 1 mps 763 mmHg 85%
    08:00 +14°C° 0 mm 1 mps 763 mmHg 79%
    09:00 +15°C° 0 mm 1 mps 764 mmHg 73%
    10:00 +18°C° 0 mm 1 mps 763 mmHg 68%
    11:00 +19°C° 0 mm 1 mps 763 mmHg 63%
    12:00 +21°C° 0 mm 1 mps 763 mmHg 58%
    13:00 +20°C° 0 mm 2 mps 763 mmHg 58%
    14:00 +20°C° 0 mm 2 mps 763 mmHg 57%
    15:00 +20°C° 0 mm 3 mps 762 mmHg 57%
    16:00 +19°C° 0 mm 2 mps 762 mmHg 67%
    17:00 +17°C° 0 mm 2 mps 763 mmHg 76%
    18:00 +15°C° 0 mm 2 mps 763 mmHg 85%
    19:00 +14°C° 0 mm 2 mps 763 mmHg 89%
    20:00 +13°C° 0 mm 1 mps 764 mmHg 92%
    21:00 +12°C° 0 mm 1 mps 764 mmHg 95%
    22:00 +11°C° 0 mm 1 mps 764 mmHg 96%
    23:00 +11°C° 0 mm 1 mps 764 mmHg 96%

    Day after tomorrow, 2 April, Thursday

    Time Temperature Precipitation Wind Pressure Humidity
    00:00 +11°C° 0 mm 1 mps 764 mmHg 96%
    01:00 +11°C° 0 mm 1 mps 764 mmHg 96%
    02:00 +11°C° 0 mm 1 mps 764 mmHg 95%
    03:00 +10°C° 0 mm 1 mps 764 mmHg 95%
    04:00 +10°C° 0 mm 1 mps 764 mmHg 95%
    05:00 +10°C° 0 mm 1 mps 764 mmHg 95%
    06:00 +10°C° 0 mm 1 mps 764 mmHg 95%
    07:00 +11°C° 0 mm 1 mps 764 mmHg 91%
    08:00 +13°C° 0 mm 1 mps 764 mmHg 86%
    09:00 +14°C° 0 mm 1 mps 765 mmHg 82%
    10:00 +16°C° 0 mm 1 mps 764 mmHg 75%
    11:00 +18°C° 0 mm 1 mps 764 mmHg 67%
    12:00 +19°C° 0 mm 2 mps 764 mmHg 60%
    13:00 +19°C° 0 mm 2 mps 764 mmHg 59%
    14:00 +19°C° 0 mm 3 mps 763 mmHg 58%
    15:00 +19°C° 0 mm 3 mps 763 mmHg 57%
    16:00 +18°C° 0 mm 3 mps 763 mmHg 66%
    17:00 +16°C° 0 mm 2 mps 763 mmHg 75%
    18:00 +14°C° 0 mm 2 mps 764 mmHg 83%
    19:00 +13°C° 0 mm 1 mps 764 mmHg 87%
    20:00 +12°C° 0 mm 1 mps 764 mmHg 90%
    21:00 +11°C° 0 mm 1 mps 765 mmHg 93%
    22:00 +11°C° 0 mm 1 mps 765 mmHg 94%
    23:00 +10°C° 0 mm 1 mps 765 mmHg 94%

    3 April, Friday

    Time Temperature Precipitation Wind Pressure Humidity
    00:00 +10°C° 0 mm 1 mps 765 mmHg 94%
    01:00 +10°C° 0 mm 1 mps 765 mmHg 94%
    02:00 +10°C° 0 mm 1 mps 765 mmHg 93%
    03:00 +10°C° 0 mm 1 mps 765 mmHg 93%
    04:00 +10°C° 0 mm 1 mps 765 mmHg 92%
    05:00 +9°C° 0 mm 0 mps 765 mmHg 92%
    06:00 +9°C° 0 mm 0 mps 765 mmHg 91%
    07:00 +10°C° 0 mm 0 mps 765 mmHg 86%
    08:00 +13°C° 0 mm 1 mps 766 mmHg 80%
    09:00 +14°C° 0 mm 1 mps 766 mmHg 75%
    10:00 +16°C° 0 mm 1 mps 766 mmHg 69%
    11:00 +17°C° 0 mm 2 mps 765 mmHg 63%
    12:00 +19°C° 0 mm 3 mps 765 mmHg 57%
    13:00 +19°C° 0 mm 3 mps 765 mmHg 59%
    14:00 +18°C° 0 mm 3 mps 765 mmHg 61%
    15:00 +18°C° 0 mm 4 mps 765 mmHg 63%
    16:00 +17°C° 0 mm 4 mps 765 mmHg 70%
    17:00 +14°C° 0 mm 4 mps 765 mmHg 78%
    18:00 +13°C° 0 mm 4 mps 765 mmHg 85%
    19:00 +12°C° 0 mm 4 mps 766 mmHg 89%
    20:00 +12°C° 0 mm 3 mps 766 mmHg 92%
    21:00 +11°C° 0 mm 3 mps 767 mmHg 95%
    22:00 +11°C° 0 mm 3 mps 767 mmHg 95%
    23:00 +11°C° 0 mm 3 mps 767 mmHg 95%

    4 April, Saturday

    Time Temperature Precipitation Wind Pressure Humidity
    00:00 +11°C° 0 mm 3 mps 767 mmHg 95%
    01:00 +11°C° 0 mm 3 mps 767 mmHg 95%
    02:00 +11°C° 0 mm 3 mps 767 mmHg 95%
    03:00 +11°C° 0 mm 4 mps 767 mmHg 95%
    04:00 +11°C° 0 mm 4 mps 767 mmHg 94%
    05:00 +11°C° 0 mm 4 mps 767 mmHg 94%
    06:00 +11°C° 0 mm 4 mps 767 mmHg 94%
    07:00 +12°C° 0 mm 5 mps 767 mmHg 90%
    08:00 +13°C° 0 mm 5 mps 768 mmHg 87%
    09:00 +14°C° 0 mm 6 mps 768 mmHg 83%
    10:00 +15°C° 0 mm 6 mps 768 mmHg 79%
    11:00 +15°C° 0 mm 7 mps 767 mmHg 75%
    12:00 +16°C° 0 mm 7 mps 767 mmHg 71%
    13:00 +16°C° 0 mm 7 mps 767 mmHg 71%
    14:00 +16°C° 0 mm 7 mps 767 mmHg 71%
    15:00 +16°C° 0 mm 7 mps 766 mmHg 71%
    16:00 +15°C° 0 mm 7 mps 766 mmHg 75%
    17:00 +14°C° 0 mm 7 mps 766 mmHg 79%
    18:00 +12°C° 0 mm 7 mps 766 mmHg 82%
    19:00 +12°C° 0 mm 7 mps 766 mmHg 83%
    20:00 +12°C° 0 mm 7 mps 767 mmHg 84%
    21:00 +11°C° 0 mm 7 mps 767 mmHg 84%
    22:00 +11°C° 0 mm 7 mps 767 mmHg 85%
    23:00 +11°C° 0 mm 7 mps 767 mmHg 85%

    5 April, Sunday

    Time Temperature Precipitation Wind Pressure Humidity
    00:00 +11°C° 0 mm 7 mps 767 mmHg 86%
    01:00 +11°C° 0 mm 7 mps 767 mmHg 87%
    02:00 +11°C° 0 mm 6 mps 767 mmHg 88%
    03:00 +11°C° 0 mm 6 mps 767 mmHg 89%
    04:00 +10°C° 0 mm 6 mps 767 mmHg 90%
    05:00 +10°C° 0 mm 5 mps 766 mmHg 91%
    06:00 +10°C° 0 mm 5 mps 766 mmHg 92%
    07:00 +12°C° 0 mm 5 mps 766 mmHg 88%
    08:00 +13°C° 0 mm 4 mps 766 mmHg 84%
    09:00 +14°C° 0 mm 4 mps 767 mmHg 80%
    10:00 +17°C° 0 mm 4 mps 766 mmHg 73%
    11:00 +17°C° 0 mm 5 mps 766 mmHg 67%
    12:00 +19°C° 0 mm 5 mps 765 mmHg 61%
    13:00 +20°C° 0 mm 5 mps 765 mmHg 61%
    14:00 +20°C° 0 mm 6 mps 765 mmHg 61%
    15:00 +20°C° 0 mm 6 mps 764 mmHg 61%
    16:00 +19°C° 0 mm 6 mps 764 mmHg 67%
    17:00 +16°C° 0 mm 6 mps 764 mmHg 73%
    18:00 +15°C° 0 mm 6 mps 764 mmHg 79%
    19:00 +14°C° 0 mm 5 mps 764 mmHg 81%
    20:00 +14°C° 0 mm 5 mps 765 mmHg 84%
    21:00 +13°C° 0 mm 4 mps 765 mmHg 87%
    22:00 +13°C° 0 mm 4 mps 765 mmHg 87%
    23:00 +12°C° 0 mm 3 mps 765 mmHg 88%
    Show more